Year,Month,Day,Hour,Minute,Value (Times are PST for temperature in C)
2009,08,24,00,00,12.30
2009,08,24,00,01,12.30
2009,08,24,00,02,12.30
2009,08,24,00,03,12.30
2009,08,24,00,04,12.30
2009,08,24,00,05,12.30
2009,08,24,00,06,12.30
2009,08,24,00,07,12.30
2009,08,24,00,08,12.30
2009,08,24,00,09,12.30
2009,08,24,00,10,12.30
2009,08,24,00,11,12.30
2009,08,24,00,12,12.30
2009,08,24,00,13,12.30
2009,08,24,00,14,12.30
2009,08,24,00,15,12.30
2009,08,24,00,16,12.30
2009,08,24,00,17,12.30
2009,08,24,00,18,12.30
2009,08,24,00,19,12.30
2009,08,24,00,20,12.20
2009,08,24,00,21,12.20
2009,08,24,00,22,12.20
2009,08,24,00,23,12.20
2009,08,24,00,24,12.20
2009,08,24,00,25,12.20
2009,08,24,00,26,12.20
2009,08,24,00,27,12.20
2009,08,24,00,28,12.20
2009,08,24,00,29,12.10
2009,08,24,00,30,12.10
2009,08,24,00,31,12.10
2009,08,24,00,32,12.10
2009,08,24,00,33,12.10
2009,08,24,00,34,12.10
2009,08,24,00,35,12.10
2009,08,24,00,36,12.10
2009,08,24,00,37,12.10
2009,08,24,00,38,12.10
2009,08,24,00,39,12.10
2009,08,24,00,40,12.10
2009,08,24,00,41,12.10
2009,08,24,00,42,12.10
2009,08,24,00,43,12.10
2009,08,24,00,44,12.10
2009,08,24,00,45,12.10
2009,08,24,00,46,12.10
2009,08,24,00,47,12.10
2009,08,24,00,48,12.10
2009,08,24,00,49,12.00
2009,08,24,00,50,12.00
2009,08,24,00,51,12.00
2009,08,24,00,52,12.00
2009,08,24,00,53,12.00
2009,08,24,00,54,12.00
2009,08,24,00,55,12.00
2009,08,24,00,56,12.00
2009,08,24,00,57,12.00
2009,08,24,00,58,12.00
2009,08,24,00,59,12.00
2009,08,24,01,00,12.00
2009,08,24,01,01,12.00
2009,08,24,01,02,12.00
2009,08,24,01,03,12.00
2009,08,24,01,04,11.90
2009,08,24,01,05,11.90
2009,08,24,01,06,11.90
2009,08,24,01,07,11.90
2009,08,24,01,08,11.90
2009,08,24,01,09,11.90
2009,08,24,01,10,11.90
2009,08,24,01,11,11.90
2009,08,24,01,12,11.90
2009,08,24,01,13,11.90
2009,08,24,01,14,11.90
2009,08,24,01,15,11.90
2009,08,24,01,16,11.90
2009,08,24,01,17,11.80
2009,08,24,01,18,11.80
2009,08,24,01,19,11.80
2009,08,24,01,20,11.80
2009,08,24,01,21,11.80
2009,08,24,01,22,11.80
2009,08,24,01,23,11.80
2009,08,24,01,24,11.80
2009,08,24,01,25,11.80
2009,08,24,01,26,11.80
2009,08,24,01,27,11.80
2009,08,24,01,28,11.80
2009,08,24,01,29,11.80
2009,08,24,01,30,11.80
2009,08,24,01,31,11.80
2009,08,24,01,32,11.80
2009,08,24,01,33,11.80
2009,08,24,01,34,11.80
2009,08,24,01,35,11.80
2009,08,24,01,36,11.80
2009,08,24,01,37,11.80
2009,08,24,01,38,11.70
2009,08,24,01,39,11.70
2009,08,24,01,40,11.70
2009,08,24,01,41,11.70
2009,08,24,01,42,11.70
2009,08,24,01,43,11.70
2009,08,24,01,44,11.70
2009,08,24,01,45,11.70
2009,08,24,01,46,11.70
2009,08,24,01,47,11.70
2009,08,24,01,48,11.70
2009,08,24,01,49,11.70
2009,08,24,01,50,11.70
2009,08,24,01,51,11.70
2009,08,24,01,52,11.70
2009,08,24,01,53,11.70
2009,08,24,01,54,11.70
2009,08,24,01,55,11.60
2009,08,24,01,56,11.60
2009,08,24,01,57,11.60
2009,08,24,01,58,11.60
2009,08,24,01,59,11.60
2009,08,24,02,00,11.60
2009,08,24,02,01,11.60
2009,08,24,02,02,11.60
2009,08,24,02,03,11.60
2009,08,24,02,04,11.60
2009,08,24,02,05,11.60
2009,08,24,02,06,11.60
2009,08,24,02,07,11.60
2009,08,24,02,08,11.60
2009,08,24,02,09,11.60
2009,08,24,02,10,11.60
2009,08,24,02,11,11.60
2009,08,24,02,12,11.50
2009,08,24,02,13,11.40
2009,08,24,02,14,11.40
2009,08,24,02,15,11.40
2009,08,24,02,16,11.40
2009,08,24,02,17,11.40
2009,08,24,02,18,11.40
2009,08,24,02,19,11.40
2009,08,24,02,20,11.40
2009,08,24,02,21,11.30
2009,08,24,02,22,11.30
2009,08,24,02,23,11.30
2009,08,24,02,24,11.30
2009,08,24,02,25,11.20
2009,08,24,02,26,11.20
2009,08,24,02,27,11.20
2009,08,24,02,28,11.10
2009,08,24,02,29,11.10
2009,08,24,02,30,11.10
2009,08,24,02,31,11.10
2009,08,24,02,32,11.10
2009,08,24,02,33,10.90
2009,08,24,02,34,10.90
2009,08,24,02,35,10.90
2009,08,24,02,36,10.90
2009,08,24,02,37,10.90
2009,08,24,02,38,10.80
2009,08,24,02,39,10.80
2009,08,24,02,40,10.80
2009,08,24,02,41,10.80
2009,08,24,02,42,10.70
2009,08,24,02,43,10.70
2009,08,24,02,44,10.70
2009,08,24,02,45,10.60
2009,08,24,02,46,10.60
2009,08,24,02,47,10.60
2009,08,24,02,48,10.60
2009,08,24,02,49,10.60
2009,08,24,02,50,10.60
2009,08,24,02,51,10.50
2009,08,24,02,52,10.40
2009,08,24,02,53,10.40
2009,08,24,02,54,10.40
2009,08,24,02,55,10.40
2009,08,24,02,56,10.40
2009,08,24,02,57,10.40
2009,08,24,02,58,10.30
2009,08,24,02,59,10.30
2009,08,24,03,00,10.30
2009,08,24,03,01,10.30
2009,08,24,03,02,10.30
2009,08,24,03,03,10.30
2009,08,24,03,04,10.30
2009,08,24,03,05,10.30
2009,08,24,03,06,10.30
2009,08,24,03,07,10.30
2009,08,24,03,08,10.30
2009,08,24,03,09,10.30
2009,08,24,03,10,10.30
2009,08,24,03,11,10.30
2009,08,24,03,12,10.20
2009,08,24,03,13,10.20
2009,08,24,03,14,10.20
2009,08,24,03,15,10.10
2009,08,24,03,16,10.10
2009,08,24,03,17,10.10
2009,08,24,03,18,10.10
2009,08,24,03,19,10.10
2009,08,24,03,20,9.90
2009,08,24,03,21,9.90
2009,08,24,03,22,9.90
2009,08,24,03,23,9.90
2009,08,24,03,24,9.90
2009,08,24,03,25,9.90
2009,08,24,03,26,9.80
2009,08,24,03,27,9.80
2009,08,24,03,28,9.80
2009,08,24,03,29,9.80
2009,08,24,03,30,9.70
2009,08,24,03,31,9.70
2009,08,24,03,32,9.70
2009,08,24,03,33,9.70
2009,08,24,03,34,9.70
2009,08,24,03,35,9.70
2009,08,24,03,36,9.70
2009,08,24,03,37,9.70
2009,08,24,03,38,9.70
2009,08,24,03,39,9.70
2009,08,24,03,40,9.70
2009,08,24,03,41,9.70
2009,08,24,03,42,9.60
2009,08,24,03,43,9.60
2009,08,24,03,44,9.60
2009,08,24,03,45,9.60
2009,08,24,03,46,9.60
2009,08,24,03,47,9.60
2009,08,24,03,48,9.50
2009,08,24,03,49,9.50
2009,08,24,03,50,9.50
2009,08,24,03,51,9.50
2009,08,24,03,52,9.50
2009,08,24,03,53,9.50
2009,08,24,03,54,9.40
2009,08,24,03,55,9.40
2009,08,24,03,56,9.40
2009,08,24,03,57,9.40
2009,08,24,03,58,9.40
2009,08,24,03,59,9.40
2009,08,24,04,00,9.40
2009,08,24,04,01,9.40
2009,08,24,04,02,9.40
2009,08,24,04,03,9.40
2009,08,24,04,04,9.40
2009,08,24,04,05,9.40
2009,08,24,04,06,9.30
2009,08,24,04,07,9.30
2009,08,24,04,08,9.30
2009,08,24,04,09,9.30
2009,08,24,04,10,9.30
2009,08,24,04,11,9.30
2009,08,24,04,12,9.30
2009,08,24,04,13,9.30
2009,08,24,04,14,9.40
2009,08,24,04,15,9.40
2009,08,24,04,16,9.40
2009,08,24,04,17,9.40
2009,08,24,04,18,9.40
2009,08,24,04,19,9.40
2009,08,24,04,20,9.40
2009,08,24,04,21,9.40
2009,08,24,04,22,9.30
2009,08,24,04,23,9.30
2009,08,24,04,24,9.30
2009,08,24,04,25,9.40
2009,08,24,04,26,9.40
2009,08,24,04,27,9.40
2009,08,24,04,28,9.40
2009,08,24,04,29,9.30
2009,08,24,04,30,9.30
2009,08,24,04,31,9.30
2009,08,24,04,32,9.30
2009,08,24,04,33,9.30
2009,08,24,04,34,9.30
2009,08,24,04,35,9.20
2009,08,24,04,36,9.20
2009,08,24,04,37,9.20
2009,08,24,04,38,9.20
2009,08,24,04,39,9.20
2009,08,24,04,40,9.20
2009,08,24,04,41,9.20
2009,08,24,04,42,9.20
2009,08,24,04,43,9.20
2009,08,24,04,44,9.20
2009,08,24,04,45,9.20
2009,08,24,04,46,9.10
2009,08,24,04,47,9.10
2009,08,24,04,48,9.10
2009,08,24,04,49,9.10
2009,08,24,04,50,9.10
2009,08,24,04,51,9.00
2009,08,24,04,52,9.00
2009,08,24,04,53,9.00
2009,08,24,04,54,9.00
2009,08,24,04,55,9.00
2009,08,24,04,56,9.00
2009,08,24,04,57,8.90
2009,08,24,04,58,8.90
2009,08,24,04,59,8.90
2009,08,24,05,00,8.90
2009,08,24,05,01,8.90
2009,08,24,05,02,8.90
2009,08,24,05,03,8.90
2009,08,24,05,04,8.90
2009,08,24,05,05,8.90
2009,08,24,05,06,8.90
2009,08,24,05,07,8.90
2009,08,24,05,08,8.90
2009,08,24,05,09,8.90
2009,08,24,05,10,8.90
2009,08,24,05,11,8.90
2009,08,24,05,12,8.90
2009,08,24,05,13,8.90
2009,08,24,05,14,8.90
2009,08,24,05,15,8.90
2009,08,24,05,16,8.90
2009,08,24,05,17,8.90
2009,08,24,05,18,8.90
2009,08,24,05,19,8.90
2009,08,24,05,20,8.90
2009,08,24,05,21,8.90
2009,08,24,05,22,8.90
2009,08,24,05,23,8.80
2009,08,24,05,24,8.80
2009,08,24,05,25,8.80
2009,08,24,05,26,8.80
2009,08,24,05,27,8.80
2009,08,24,05,28,8.80
2009,08,24,05,29,8.80
2009,08,24,05,30,8.80
2009,08,24,05,31,8.80
2009,08,24,05,32,8.80
2009,08,24,05,33,8.70
2009,08,24,05,34,8.70
2009,08,24,05,35,8.70
2009,08,24,05,36,8.70
2009,08,24,05,37,8.70
2009,08,24,05,38,8.70
2009,08,24,05,39,8.70
2009,08,24,05,40,8.70
2009,08,24,05,41,8.70
2009,08,24,05,42,8.70
2009,08,24,05,43,8.70
2009,08,24,05,44,8.70
2009,08,24,05,45,8.70
2009,08,24,05,46,8.70
2009,08,24,05,47,8.70
2009,08,24,05,48,8.70
2009,08,24,05,49,8.70
2009,08,24,05,50,8.80
2009,08,24,05,51,8.80
2009,08,24,05,52,8.70
2009,08,24,05,53,8.70
2009,08,24,05,54,8.80
2009,08,24,05,55,8.80
2009,08,24,05,56,8.80
2009,08,24,05,57,8.80
2009,08,24,05,58,8.70
2009,08,24,05,59,8.70
2009,08,24,06,00,8.70
2009,08,24,06,01,8.70
2009,08,24,06,02,8.70
2009,08,24,06,03,8.70
2009,08,24,06,04,8.70
2009,08,24,06,05,8.70
2009,08,24,06,06,8.70
2009,08,24,06,07,8.70
2009,08,24,06,08,8.70
2009,08,24,06,09,8.70
2009,08,24,06,10,8.70
2009,08,24,06,11,8.70
2009,08,24,06,12,8.70
2009,08,24,06,13,8.60
2009,08,24,06,14,8.60
2009,08,24,06,15,8.60
2009,08,24,06,16,8.60
2009,08,24,06,17,8.60
2009,08,24,06,18,8.60
2009,08,24,06,19,8.60
2009,08,24,06,20,8.60
2009,08,24,06,21,8.60
2009,08,24,06,22,8.50
2009,08,24,06,23,8.50
2009,08,24,06,24,8.50
2009,08,24,06,25,8.50
2009,08,24,06,26,8.50
2009,08,24,06,27,8.50
2009,08,24,06,28,8.50
2009,08,24,06,29,8.50
2009,08,24,06,30,8.60
2009,08,24,06,31,8.60
2009,08,24,06,32,8.60
2009,08,24,06,33,8.60
2009,08,24,06,34,8.60
2009,08,24,06,35,8.60
2009,08,24,06,36,8.60
2009,08,24,06,37,8.60
2009,08,24,06,38,8.50
2009,08,24,06,39,8.50
2009,08,24,06,40,8.50
2009,08,24,06,41,8.50
2009,08,24,06,42,8.50
2009,08,24,06,43,8.50
2009,08,24,06,44,8.50
2009,08,24,06,45,8.50
2009,08,24,06,46,8.50
2009,08,24,06,47,8.50
2009,08,24,06,48,8.40
2009,08,24,06,49,8.40
2009,08,24,06,50,8.40
2009,08,24,06,51,8.40
2009,08,24,06,52,8.40
2009,08,24,06,53,8.40
2009,08,24,06,54,8.40
2009,08,24,06,55,8.40
2009,08,24,06,56,8.40
2009,08,24,06,57,8.40
2009,08,24,06,58,8.40
2009,08,24,06,59,8.40
2009,08,24,07,00,8.40
2009,08,24,07,01,8.40
2009,08,24,07,02,8.40
2009,08,24,07,03,8.40
2009,08,24,07,04,8.40
2009,08,24,07,05,8.40
2009,08,24,07,06,8.40
2009,08,24,07,07,8.40
2009,08,24,07,08,8.40
2009,08,24,07,09,8.40
2009,08,24,07,10,8.50
2009,08,24,07,11,8.50
2009,08,24,07,12,8.50
2009,08,24,07,13,8.50
2009,08,24,07,14,8.60
2009,08,24,07,15,8.60
2009,08,24,07,16,8.70
2009,08,24,07,17,8.70
2009,08,24,07,18,8.80
2009,08,24,07,19,8.80
2009,08,24,07,20,8.90
2009,08,24,07,21,8.90
2009,08,24,07,22,9.00
2009,08,24,07,23,9.10
2009,08,24,07,24,9.10
2009,08,24,07,25,9.20
2009,08,24,07,26,9.20
2009,08,24,07,27,9.30
2009,08,24,07,28,9.40
2009,08,24,07,29,9.60
2009,08,24,07,30,9.70
2009,08,24,07,31,9.80
2009,08,24,07,32,9.90
2009,08,24,07,33,10.00
2009,08,24,07,34,10.10
2009,08,24,07,35,10.30
2009,08,24,07,36,10.40
2009,08,24,07,37,10.50
2009,08,24,07,38,10.60
2009,08,24,07,39,10.60
2009,08,24,07,40,10.80
2009,08,24,07,41,10.90
2009,08,24,07,42,10.90
2009,08,24,07,43,11.00
2009,08,24,07,44,11.10
2009,08,24,07,45,11.20
2009,08,24,07,46,11.30
2009,08,24,07,47,11.40
2009,08,24,07,48,11.40
2009,08,24,07,49,11.40
2009,08,24,07,50,11.40
2009,08,24,07,51,11.40
2009,08,24,07,52,11.40
2009,08,24,07,53,11.40
2009,08,24,07,54,11.40
2009,08,24,07,55,11.40
2009,08,24,07,56,11.40
2009,08,24,07,57,11.40
2009,08,24,07,58,11.40
2009,08,24,07,59,11.50
2009,08,24,08,00,11.60
2009,08,24,08,01,11.60
2009,08,24,08,02,11.60
2009,08,24,08,03,11.60
2009,08,24,08,04,11.70
2009,08,24,08,05,11.70
2009,08,24,08,06,11.70
2009,08,24,08,07,11.80
2009,08,24,08,08,11.80
2009,08,24,08,09,11.80
2009,08,24,08,10,11.80
2009,08,24,08,11,11.80
2009,08,24,08,12,11.80
2009,08,24,08,13,11.90
2009,08,24,08,14,12.00
2009,08,24,08,15,12.00
2009,08,24,08,16,12.10
2009,08,24,08,17,12.10
2009,08,24,08,18,12.20
2009,08,24,08,19,12.20
2009,08,24,08,20,12.30
2009,08,24,08,21,12.30
2009,08,24,08,22,12.30
2009,08,24,08,23,12.30
2009,08,24,08,24,12.30
2009,08,24,08,25,12.40
2009,08,24,08,26,12.40
2009,08,24,08,27,12.50
2009,08,24,08,28,12.50
2009,08,24,08,29,12.60
2009,08,24,08,30,12.70
2009,08,24,08,31,12.80
2009,08,24,08,32,12.80
2009,08,24,08,33,12.90
2009,08,24,08,34,12.90
2009,08,24,08,35,12.90
2009,08,24,08,36,12.90
2009,08,24,08,37,12.90
2009,08,24,08,38,13.00
2009,08,24,08,39,13.00
2009,08,24,08,40,13.00
2009,08,24,08,41,13.00
2009,08,24,08,42,13.00
2009,08,24,08,43,13.00
2009,08,24,08,44,12.90
2009,08,24,08,45,12.90
2009,08,24,08,46,12.90
2009,08,24,08,47,12.90
2009,08,24,08,48,12.90
2009,08,24,08,49,12.90
2009,08,24,08,50,13.00
2009,08,24,08,51,13.00
2009,08,24,08,52,13.10
2009,08,24,08,53,13.10
2009,08,24,08,54,13.20
2009,08,24,08,55,13.30
2009,08,24,08,56,13.30
2009,08,24,08,57,13.30
2009,08,24,08,58,13.40
2009,08,24,08,59,13.50
2009,08,24,09,00,13.50
2009,08,24,09,01,13.60
2009,08,24,09,02,13.60
2009,08,24,09,03,13.70
2009,08,24,09,04,13.70
2009,08,24,09,05,13.70
2009,08,24,09,06,13.70
2009,08,24,09,07,13.80
2009,08,24,09,08,13.90
2009,08,24,09,09,14.00
2009,08,24,09,10,14.00
2009,08,24,09,11,14.10
2009,08,24,09,12,14.20
2009,08,24,09,13,14.30
2009,08,24,09,14,14.30
2009,08,24,09,15,14.20
2009,08,24,09,16,14.20
2009,08,24,09,17,14.30
2009,08,24,09,18,14.40
2009,08,24,09,19,14.50
2009,08,24,09,20,14.50
2009,08,24,09,21,14.60
2009,08,24,09,22,14.60
2009,08,24,09,23,14.70
2009,08,24,09,24,14.80
2009,08,24,09,25,14.90
2009,08,24,09,26,14.90
2009,08,24,09,27,15.00
2009,08,24,09,28,15.10
2009,08,24,09,29,15.10
2009,08,24,09,30,15.10
2009,08,24,09,31,15.20
2009,08,24,09,32,15.20
2009,08,24,09,33,15.20
2009,08,24,09,34,15.20
2009,08,24,09,35,15.20
2009,08,24,09,36,15.20
2009,08,24,09,37,15.20
2009,08,24,09,38,15.20
2009,08,24,09,39,15.20
2009,08,24,09,40,15.20
2009,08,24,09,41,15.30
2009,08,24,09,42,15.30
2009,08,24,09,43,15.40
2009,08,24,09,44,15.40
2009,08,24,09,45,15.50
2009,08,24,09,46,15.50
2009,08,24,09,47,15.50
2009,08,24,09,48,15.60
2009,08,24,09,49,15.60
2009,08,24,09,50,15.60
2009,08,24,09,51,15.60
2009,08,24,09,52,15.50
2009,08,24,09,53,15.50
2009,08,24,09,54,15.50
2009,08,24,09,55,15.50
2009,08,24,09,56,15.50
2009,08,24,09,57,15.60
2009,08,24,09,58,15.80
2009,08,24,09,59,15.80
2009,08,24,10,00,15.80
2009,08,24,10,01,15.80
2009,08,24,10,02,15.80
2009,08,24,10,03,15.80
2009,08,24,10,04,15.80
2009,08,24,10,05,15.90
2009,08,24,10,06,15.90
2009,08,24,10,07,16.10
2009,08,24,10,08,16.20
2009,08,24,10,09,16.20
2009,08,24,10,10,16.20
2009,08,24,10,11,16.30
2009,08,24,10,12,16.20
2009,08,24,10,13,16.30
2009,08,24,10,14,16.30
2009,08,24,10,15,16.30
2009,08,24,10,16,16.30
2009,08,24,10,17,16.30
2009,08,24,10,18,16.20
2009,08,24,10,19,16.30
2009,08,24,10,20,16.40
2009,08,24,10,21,16.40
2009,08,24,10,22,16.60
2009,08,24,10,23,16.60
2009,08,24,10,24,16.60
2009,08,24,10,25,16.70
2009,08,24,10,26,16.70
2009,08,24,10,27,16.70
2009,08,24,10,28,16.60
2009,08,24,10,29,16.60
2009,08,24,10,30,16.50
2009,08,24,10,31,16.60
2009,08,24,10,32,16.60
2009,08,24,10,33,16.60
2009,08,24,10,34,16.60
2009,08,24,10,35,16.70
2009,08,24,10,36,16.70
2009,08,24,10,37,16.70
2009,08,24,10,38,16.70
2009,08,24,10,39,16.90
2009,08,24,10,40,16.90
2009,08,24,10,41,17.00
2009,08,24,10,42,16.90
2009,08,24,10,43,16.90
2009,08,24,10,44,16.80
2009,08,24,10,45,16.70
2009,08,24,10,46,16.70
2009,08,24,10,47,16.70
2009,08,24,10,48,16.70
2009,08,24,10,49,16.70
2009,08,24,10,50,16.80
2009,08,24,10,51,16.70
2009,08,24,10,52,16.70
2009,08,24,10,53,16.70
2009,08,24,10,54,16.70
2009,08,24,10,55,16.70
2009,08,24,10,56,16.60
2009,08,24,10,57,16.60
2009,08,24,10,58,16.70
2009,08,24,10,59,16.70
2009,08,24,11,00,16.60
2009,08,24,11,01,16.50
2009,08,24,11,02,16.40
2009,08,24,11,03,16.30
2009,08,24,11,04,16.30
2009,08,24,11,05,16.40
2009,08,24,11,06,16.40
2009,08,24,11,07,16.50
2009,08,24,11,08,16.60
2009,08,24,11,09,16.70
2009,08,24,11,10,16.90
2009,08,24,11,11,17.00
2009,08,24,11,12,17.00
2009,08,24,11,13,17.10
2009,08,24,11,14,17.30
2009,08,24,11,15,17.30
2009,08,24,11,16,17.50
2009,08,24,11,17,17.60
2009,08,24,11,18,17.60
2009,08,24,11,19,17.50
2009,08,24,11,20,17.30
2009,08,24,11,21,17.30
2009,08,24,11,22,17.30
2009,08,24,11,23,17.20
2009,08,24,11,24,17.10
2009,08,24,11,25,17.00
2009,08,24,11,26,17.00
2009,08,24,11,27,17.00
2009,08,24,11,28,17.00
2009,08,24,11,29,16.90
2009,08,24,11,30,17.00
2009,08,24,11,31,17.00
2009,08,24,11,32,17.00
2009,08,24,11,33,17.00
2009,08,24,11,34,17.00
2009,08,24,11,35,17.10
2009,08,24,11,36,17.20
2009,08,24,11,37,17.30
2009,08,24,11,38,17.30
2009,08,24,11,39,17.20
2009,08,24,11,40,17.20
2009,08,24,11,41,17.30
2009,08,24,11,42,17.20
2009,08,24,11,43,17.20
2009,08,24,11,44,17.20
2009,08,24,11,45,17.20
2009,08,24,11,46,17.30
2009,08,24,11,47,17.20
2009,08,24,11,48,17.30
2009,08,24,11,49,17.40
2009,08,24,11,50,17.50
2009,08,24,11,51,17.50
2009,08,24,11,52,17.50
2009,08,24,11,53,17.50
2009,08,24,11,54,17.70
2009,08,24,11,55,17.80
2009,08,24,11,56,17.80
2009,08,24,11,57,17.90
2009,08,24,11,58,17.90
2009,08,24,11,59,17.90
2009,08,24,12,00,17.80
2009,08,24,12,01,17.80
2009,08,24,12,02,17.90
2009,08,24,12,03,17.90
2009,08,24,12,04,18.10
2009,08,24,12,05,18.10
2009,08,24,12,06,18.20
2009,08,24,12,07,18.20
2009,08,24,12,08,18.50
2009,08,24,12,09,18.60
2009,08,24,12,10,18.60
2009,08,24,12,11,18.70
2009,08,24,12,12,18.60
2009,08,24,12,13,18.60
2009,08,24,12,14,18.60
2009,08,24,12,15,18.70
2009,08,24,12,16,18.80
2009,08,24,12,17,18.70
2009,08,24,12,18,18.60
2009,08,24,12,19,18.60
2009,08,24,12,20,18.40
2009,08,24,12,21,18.20
2009,08,24,12,22,18.20
2009,08,24,12,23,18.20
2009,08,24,12,24,18.30
2009,08,24,12,25,18.30
2009,08,24,12,26,18.40
2009,08,24,12,27,18.40
2009,08,24,12,28,18.30
2009,08,24,12,29,18.20
2009,08,24,12,30,18.10
2009,08,24,12,31,18.10
2009,08,24,12,32,18.20
2009,08,24,12,33,18.20
2009,08,24,12,34,18.10
2009,08,24,12,35,17.90
2009,08,24,12,36,17.90
2009,08,24,12,37,17.90
2009,08,24,12,38,17.90
2009,08,24,12,39,18.00
2009,08,24,12,40,18.00
2009,08,24,12,41,17.90
2009,08,24,12,42,17.80
2009,08,24,12,43,17.80
2009,08,24,12,44,17.70
2009,08,24,12,45,17.80
2009,08,24,12,46,18.00
2009,08,24,12,47,18.10
2009,08,24,12,48,18.00
2009,08,24,12,49,17.90
2009,08,24,12,50,18.00
2009,08,24,12,51,17.90
2009,08,24,12,52,17.80
2009,08,24,12,53,17.60
2009,08,24,12,54,17.60
2009,08,24,12,55,17.60
2009,08,24,12,56,17.50
2009,08,24,12,57,17.40
2009,08,24,12,58,17.30
2009,08,24,12,59,17.30
2009,08,24,13,00,17.20
2009,08,24,13,01,17.20
2009,08,24,13,02,17.20
2009,08,24,13,03,17.00
2009,08,24,13,04,17.00
2009,08,24,13,05,17.00
2009,08,24,13,06,17.00
2009,08,24,13,07,17.00
2009,08,24,13,08,17.00
2009,08,24,13,09,16.90
2009,08,24,13,10,16.90
2009,08,24,13,11,16.90
2009,08,24,13,12,17.00
2009,08,24,13,13,17.00
2009,08,24,13,14,17.00
2009,08,24,13,15,17.10
2009,08,24,13,16,17.20
2009,08,24,13,17,17.30
2009,08,24,13,18,17.30
2009,08,24,13,19,17.10
2009,08,24,13,20,17.00
2009,08,24,13,21,17.00
2009,08,24,13,22,17.10
2009,08,24,13,23,17.10
2009,08,24,13,24,17.10
2009,08,24,13,25,17.10
2009,08,24,13,26,17.00
2009,08,24,13,27,16.90
2009,08,24,13,28,16.90
2009,08,24,13,29,16.90
2009,08,24,13,30,16.90
2009,08,24,13,31,17.00
2009,08,24,13,32,17.10
2009,08,24,13,33,17.20
2009,08,24,13,34,17.20
2009,08,24,13,35,17.30
2009,08,24,13,36,17.20
2009,08,24,13,37,17.10
2009,08,24,13,38,17.10
2009,08,24,13,39,17.20
2009,08,24,13,40,17.30
2009,08,24,13,41,17.40
2009,08,24,13,42,17.60
2009,08,24,13,43,17.60
2009,08,24,13,44,17.70
2009,08,24,13,45,17.60
2009,08,24,13,46,17.50
2009,08,24,13,47,17.30
2009,08,24,13,48,17.30
2009,08,24,13,49,17.30
2009,08,24,13,50,17.30
2009,08,24,13,51,17.20
2009,08,24,13,52,17.10
2009,08,24,13,53,17.00
2009,08,24,13,54,16.90
2009,08,24,13,55,16.80
2009,08,24,13,56,16.80
2009,08,24,13,57,16.80
2009,08,24,13,58,16.70
2009,08,24,13,59,16.80
2009,08,24,14,00,16.90
2009,08,24,14,01,16.90
2009,08,24,14,02,16.90
2009,08,24,14,03,17.00
2009,08,24,14,04,17.10
2009,08,24,14,05,17.30
2009,08,24,14,06,17.40
2009,08,24,14,07,17.50
2009,08,24,14,08,17.60
2009,08,24,14,09,17.70
2009,08,24,14,10,17.80
2009,08,24,14,11,17.80
2009,08,24,14,12,17.90
2009,08,24,14,13,18.00
2009,08,24,14,14,18.20
2009,08,24,14,15,18.10
2009,08,24,14,16,17.90
2009,08,24,14,17,17.90
2009,08,24,14,18,18.00
2009,08,24,14,19,18.10
2009,08,24,14,20,18.20
2009,08,24,14,21,18.20
2009,08,24,14,22,18.20
2009,08,24,14,23,18.00
2009,08,24,14,24,17.90
2009,08,24,14,25,18.00
2009,08,24,14,26,18.20
2009,08,24,14,27,18.10
2009,08,24,14,28,18.00
2009,08,24,14,29,18.10
2009,08,24,14,30,18.10
2009,08,24,14,31,18.10
2009,08,24,14,32,18.10
2009,08,24,14,33,18.20
2009,08,24,14,34,18.30
2009,08,24,14,35,18.40
2009,08,24,14,36,18.60
2009,08,24,14,37,18.70
2009,08,24,14,38,18.70
2009,08,24,14,39,18.90
2009,08,24,14,40,19.00
2009,08,24,14,41,19.10
2009,08,24,14,42,19.20
2009,08,24,14,43,19.30
2009,08,24,14,44,19.30
2009,08,24,14,45,19.30
2009,08,24,14,46,19.10
2009,08,24,14,47,19.10
2009,08,24,14,48,19.10
2009,08,24,14,49,19.10
2009,08,24,14,50,19.20
2009,08,24,14,51,19.30
2009,08,24,14,52,19.40
2009,08,24,14,53,19.50
2009,08,24,14,54,19.50
2009,08,24,14,55,19.40
2009,08,24,14,56,19.30
2009,08,24,14,57,19.30
2009,08,24,14,58,19.30
2009,08,24,14,59,19.10
2009,08,24,15,00,18.90
2009,08,24,15,01,18.70
2009,08,24,15,02,18.70
2009,08,24,15,03,18.60
2009,08,24,15,04,18.50
2009,08,24,15,05,18.50
2009,08,24,15,06,18.50
2009,08,24,15,07,18.50
2009,08,24,15,08,18.50
2009,08,24,15,09,18.50
2009,08,24,15,10,18.50
2009,08,24,15,11,18.50
2009,08,24,15,12,18.50
2009,08,24,15,13,18.60
2009,08,24,15,14,18.70
2009,08,24,15,15,18.90
2009,08,24,15,16,18.90
2009,08,24,15,17,18.90
2009,08,24,15,18,18.90
2009,08,24,15,19,18.80
2009,08,24,15,20,18.80
2009,08,24,15,21,18.70
2009,08,24,15,22,18.70
2009,08,24,15,23,18.70
2009,08,24,15,24,18.70
2009,08,24,15,25,18.60
2009,08,24,15,26,18.50
2009,08,24,15,27,18.50
2009,08,24,15,28,18.60
2009,08,24,15,29,18.70
2009,08,24,15,30,18.70
2009,08,24,15,31,18.70
2009,08,24,15,32,18.80
2009,08,24,15,33,18.70
2009,08,24,15,34,18.80
2009,08,24,15,35,18.60
2009,08,24,15,36,18.60
2009,08,24,15,37,18.60
2009,08,24,15,38,18.50
2009,08,24,15,39,18.50
2009,08,24,15,40,18.40
2009,08,24,15,41,18.40
2009,08,24,15,42,18.50
2009,08,24,15,43,18.60
2009,08,24,15,44,18.60
2009,08,24,15,45,18.70
2009,08,24,15,46,18.70
2009,08,24,15,47,18.70
2009,08,24,15,48,18.70
2009,08,24,15,49,18.70
2009,08,24,15,50,18.80
2009,08,24,15,51,18.70
2009,08,24,15,52,18.70
2009,08,24,15,53,18.70
2009,08,24,15,54,18.70
2009,08,24,15,55,18.80
2009,08,24,15,56,18.90
2009,08,24,15,57,18.90
2009,08,24,15,58,18.70
2009,08,24,15,59,18.60
2009,08,24,16,00,18.40
2009,08,24,16,01,18.40
2009,08,24,16,02,18.30
2009,08,24,16,03,18.40
2009,08,24,16,04,18.60
2009,08,24,16,05,18.60
2009,08,24,16,06,18.70
2009,08,24,16,07,18.70
2009,08,24,16,08,18.80
2009,08,24,16,09,18.80
2009,08,24,16,10,18.80
2009,08,24,16,11,18.80
2009,08,24,16,12,18.80
2009,08,24,16,13,18.90
2009,08,24,16,14,18.70
2009,08,24,16,15,18.60
2009,08,24,16,16,18.60
2009,08,24,16,17,18.50
2009,08,24,16,18,18.40
2009,08,24,16,19,18.30
2009,08,24,16,20,18.30
2009,08,24,16,21,18.40
2009,08,24,16,22,18.40
2009,08,24,16,23,18.60
2009,08,24,16,24,18.70
2009,08,24,16,25,18.70
2009,08,24,16,26,18.70
2009,08,24,16,27,18.80
2009,08,24,16,28,18.90
2009,08,24,16,29,18.90
2009,08,24,16,30,19.00
2009,08,24,16,31,19.10
2009,08,24,16,32,19.10
2009,08,24,16,33,19.10
2009,08,24,16,34,19.10
2009,08,24,16,35,19.10
2009,08,24,16,36,19.10
2009,08,24,16,37,19.10
2009,08,24,16,38,19.10
2009,08,24,16,39,19.20
2009,08,24,16,40,19.20
2009,08,24,16,41,19.20
2009,08,24,16,42,19.20
2009,08,24,16,43,19.20
2009,08,24,16,44,19.20
2009,08,24,16,45,19.20
2009,08,24,16,46,19.20
2009,08,24,16,47,19.20
2009,08,24,16,48,19.20
2009,08,24,16,49,19.20
2009,08,24,16,50,19.20
2009,08,24,16,51,19.20
2009,08,24,16,52,19.20
2009,08,24,16,53,19.20
2009,08,24,16,54,19.20
2009,08,24,16,55,19.20
2009,08,24,16,56,19.30
2009,08,24,16,57,19.40
2009,08,24,16,58,19.40
2009,08,24,16,59,19.40
2009,08,24,17,00,19.40
2009,08,24,17,01,19.40
2009,08,24,17,02,19.50
2009,08,24,17,03,19.60
2009,08,24,17,04,19.70
2009,08,24,17,05,19.70
2009,08,24,17,06,19.70
2009,08,24,17,07,19.70
2009,08,24,17,08,19.70
2009,08,24,17,09,19.70
2009,08,24,17,10,19.70
2009,08,24,17,11,19.70
2009,08,24,17,12,19.70
2009,08,24,17,13,19.70
2009,08,24,17,14,19.80
2009,08,24,17,15,19.80
2009,08,24,17,16,19.80
2009,08,24,17,17,19.90
2009,08,24,17,18,19.90
2009,08,24,17,19,19.90
2009,08,24,17,20,19.90
2009,08,24,17,21,19.90
2009,08,24,17,22,20.00
2009,08,24,17,23,20.10
2009,08,24,17,24,20.10
2009,08,24,17,25,20.10
2009,08,24,17,26,20.10
2009,08,24,17,27,20.10
2009,08,24,17,28,20.20
2009,08,24,17,29,20.10
2009,08,24,17,30,20.20